Погода в Абрикосово

Россия / Республика Крым     45°41′24″N   34°05′45″E
темп.,
°C
ветер,
м/с
пор.,
м/с
влажн.,
%
обл.,
%
осадки,
мм/ч
давл.,
гПа
погр.,
м
25 февраля, чт
чт2500:00−3вюв247168 0.0 1037156
03:00−3в126936 0.0 103634
06:00−2юв116775 0.0 103521
09:000ю235987 0.0 1035200
12:00+2юз235199 0.0 1035305
15:00+4зсз245999 0.0 1033360
18:00+3зюз2279100 0.0 103230
21:00+2юз359398 0.0 1032112
26 февраля, пт
пт2600:00+3зюз489696 0.0 1031161
03:00+4зюз489694 0.1 1030184
06:00+4зюз3795100 0.0 1029167
09:00+6зюз589397 0.0 1029247
12:00+11зюз697515 0.0 1028513
15:00+13з686225 0.0 10261054
18:00+10юз610734 0.0 1024428
21:00+7юз612913 0.0 1024351
27 февраля, сб
сб2700:00+7юз714920 0.0 1022402
03:00+7юз713920 0.0 1021443
06:00+6юз7139338 0.0 1019426
09:00+7зюз7118954 0.0 1018531
12:00+10з5880100 0.0 1017636
15:00+8сз5785100 0.0 1016394
18:00+6ссз5883100 0.3 1015596
21:00+6сз5981100 1.4 1016674
28 февраля, вс
вс2800:00+5сз487097 0.0 1017387
03:00+3сз5108598 0.1 1017675
06:00+3сз588079 0.1 1018701
09:00+2сз589487 0.1 1020501
12:00+4ссз686994 0.2 10211049
15:00+5ссз576795 0.3 10221034
18:00+4ссз5764100 0.1 10231196
21:00+3ссз4775100 0.2 1025687
1 марта, пн
пн100:00+2ссз378097 0.1 1026381
03:00+2ссз368098 0.2 1026256
06:00+1ссз368799 0.1 1027236
09:00+1с348398 0.1 1028416
12:00+4с446192 0.1 10291042
15:00+5с455996 0.3 10291130
18:00+3ссв4563100 0.1 1030972
21:00+2св257598 0.2 1032606